Regional Weather Roundup
Issued by NWS

Home | Current Version | Previous Version | Graphics & Text | Print | Product List | Glossary On
Versions: 1 2 3 4 5 6 7 8 9 10 11 12 13 14 15 16 17 18 19 20 21 22 23 24 25 26 27 28 29 30 31 32 33 34 35 36 37 38 39 40 41 42 43 44 45 46 47 48 49 50
000
ASUS43 KMPX 170310
RWRMN
WEATHER ROUNDUP FOR MINNESOTA
NATIONAL WEATHER SERVICE TWIN CITIES/CHANHASSEN MN
1000 PM CDT TUE SEP 16 2014


NOTE: "FAIR" INDICATES FEW OR NO CLOUDS BELOW 12,000 FEET WITH NO
SIGNIFICANT WEATHER AND/OR OBSTRUCTIONS TO VISIBILITY. N/A MEANS
CURRENT SKY AND/OR WEATHER CONDITIONS ARE NOT AVAILABLE.

MNZ060>063-068>070-170400-
   Twin Cities Metro

CITY           SKY/WX    TMP DP  RH WIND       PRES   REMARKS
TWIN CITIES    PTCLDY    57  45  64 SE3       30.01F
ST PAUL        PTCLDY    53  49  86 CALM      30.02F
CRYSTAL        MOCLDY    56  48  74 CALM      30.00F
BLAINE         MOCLDY    54  50  87 CALM      30.01S
LAKEVILLE      MOCLDY    50  46  87 CALM      30.02S
EDEN PRAIRIE   MOCLDY    57  46  66 SE3       30.00F
SOUTH ST PAUL  CLEAR     54  47  77 CALM      30.02S
LAKE ELMO      FAIR      48  46  93 CALM      30.03F
$$
MNZ001>005-007-008-013>017-022>024-027-028-170400-
   Northwest Minnesota

CITY           SKY/WX    TMP DP  RH WIND       PRES   REMARKS
BEMIDJI        CLEAR     53  42  66 SW3       29.96S
HALLOCK        CLEAR     52  45  76 SW3       29.89S
ROSEAU         MOCLDY    52  46  82 S7        29.90F
WARROAD        MOCLDY    55  52  88 S5        29.90F
THIEF RVR FALL CLEAR     54  43  66 S8        29.93S
CROOKSTON      CLEAR     48  45  87 S7        29.94S
FOSSTON        CLEAR     46  41  81 S5        29.96F
DETROIT LAKES  CLEAR     55  46  71 SE5       29.98S
MOORHEAD       CLEAR     55  48  76 SE3       29.94F
PARK RAPIDS    CLEAR     52  42  69 SE3       29.98S
MAHNOMEN       FAIR      52  41  67 SE7       29.96S
$$
MNZ006-009>011-018-025>026-170400-
   North Central Minnesota

CITY           SKY/WX    TMP DP  RH WIND       PRES   REMARKS
BAUDETTE       CLOUDY    53  49  86 CALM      29.90F
FLAG ISLAND    CLOUDY    57  52  82 S8        29.88F
INTL FALLS     LGT RAIN  51  49  92 CALM      29.93S
WASKISH        CLOUDY    57  46  67 CALM      29.93F
BIG FORK       PTCLDY    52  46  82 S3        29.96S
LONGVILLE      CLEAR     45  43  93 CALM      29.98S
GRAND RAPIDS   CLEAR     52  41  66 S6        29.97F
CRANE LAKE     CLOUDY    48  48 100 CALM      29.95F
ORR            CLOUDY    54  48  82 CALM      29.92F
COOK           CLOUDY    54  50  87 CALM      29.95F
WALKER         FAIR      50  41  70 CALM      29.97F
$$
MNZ012-019>021-037-170400-
   Northeast Minnesota

CITY           SKY/WX    TMP DP  RH WIND       PRES   REMARKS
DULUTH         PTCLDY    56  42  59 SW9       29.99S
ELY            CLOUDY    50  46  87 CALM      29.96S
HIBBING        PTCLDY    49  43  80 CALM      29.97S
EVELETH        PTCLDY    54  43  66 SW5       29.98S
DULUTH HARBOR  CLEAR     55  48  76 SW9       29.99S
TWO HARBORS    CLEAR     54  43  66 W6        29.96S
SILVER BAY     PTCLDY    50  50 100 CALM      29.95S
GRAND MARAIS     N/A     50  46  86 E13       30.00R
G MARAIS ARPRT CLOUDY    46  43  87 CALM      30.00R
$$
MNZ029>031-032-039>041-046>048-054>057-064-170400-
   West Central Minnesota

CITY           SKY/WX    TMP DP  RH WIND       PRES   REMARKS
FERGUS FALLS   PTCLDY    59  45  58 SE8       29.96S
WHEATON        CLEAR     50  46  87 SE8       29.96S
MORRIS         CLEAR     54  48  82 SE6       29.95S
ALEXANDRIA     PTCLDY    55  46  71 SE6       29.99S
ELBOW LAKE     FAIR      57  47  70 SE7       29.96S
WADENA         PTCLDY    48  43  81 CALM      29.98S
GLENWOOD       CLEAR     54  46  76 E3        29.99R
APPLETON       CLOUDY    63  50  63 S6        29.96S
BENSON         CLOUDY    61  50  67 S6        29.97S
ORTONVILLE     CLOUDY    63  52  67 S7        29.95S
MADISON        CLOUDY    64  52  63 S6        29.96S
WILLMAR        MOCLDY    59  52  77 SE3       30.00S
$$
MNZ033>034-036-042>043-049>051-058-059-170400-
   Central Minnesota

CITY           SKY/WX    TMP DP  RH WIND       PRES   REMARKS
ST CLOUD       CLOUDY    58  47  66 E5        30.00S
SAUK CENTRE    MOCLDY    55  48  78 SE5       29.99S
PAYNESVILLE    MOCLDY    57  47  68 E6        29.99F
AITKIN         CLEAR     48  43  81 CALM      29.98F
PINE RIVER     CLEAR     46  43  87 CALM      30.02S
BRAINERD       CLEAR     46  44  93 CALM      30.00F
STAPLES        CLEAR     46  43  87 SE3       29.99S
LONG PRAIRIE   CLOUDY    55  45  67 E3        30.00S
LITTLE FALLS   MOCLDY    54  45  71 CALM      30.00S
LITCHFIELD     MOCLDY    57  54  88 CALM      30.00F
BUFFALO        CLOUDY    56  47  71 CALM      30.01S
MAPLE LAKE     CLOUDY    56  52  84 CALM      30.01F
$$
MNZ037-044-045-052-053-170400-
   East Central Minnesota

CITY           SKY/WX    TMP DP  RH WIND       PRES   REMARKS
PRINCETON      CLOUDY    52  48  87 NE1       30.01F
MORA           CLEAR     45  43  93 CALM      30.03S
CAMBRIDGE      CLEAR     50  43  76 CALM      30.00S
RUSH CITY      MOCLDY    45  44  95 CALM      30.02S
MOOSE LAKE     CLEAR     45  45 100 CALM      29.99S
HINCKLEY       FAIR      45  43  93 CALM      30.01S
CLOQUET        CLEAR     54  43  66 SW7       29.99S
MCGREGOR       CLEAR     50  45  81 CALM      30.00S
$$
MNZ071>073-080-081-089-090-097-098-170400-
   Southwest Minnesota

CITY           SKY/WX    TMP DP  RH WIND       PRES   REMARKS
MONTEVIDEO     CLOUDY    61  50  67 S5        29.98S
GRANITE FALLS  CLOUDY    60  51  74 SE6       30.00S
CANBY          CLOUDY    60  51  72 SE6       29.98S
MARSHALL       CLOUDY    63  46  55 S13       29.97F
REDWOOD FALLS  CLOUDY    61  50  67 S8        29.99F
OLIVIA         CLOUDY    59  48  67 S5        29.99S
PIPESTONE      CLOUDY    57  48  72 S8        29.99S
WINDOM         CLOUDY    59  50  72 CALM      30.02R
WORTHINGTON    CLOUDY    57  48  72 S9        30.02R
JACKSON        PTCLDY    55  46  71 S6        30.02S
TRACY          CLOUDY    60  52  75 CALM      30.00F
SLAYTON        PTCLDY    56  50  81 CALM      30.01S
$$
MNZ065>067-074>077-082>085-091>093-170400-
   South Central Minnesota

CITY           SKY/WX    TMP DP  RH WIND       PRES   REMARKS
MANKATO        CLOUDY    55  46  71 SE6       30.01S
NEW ULM        CLOUDY    59  52  77 CALM      30.01R
ST JAMES       MOCLDY    57  48  72 S6        30.02S
FAIRMONT       CLOUDY    54  45  71 S6        30.02S
GLENCOE        CLOUDY    59  47  66 CALM      30.00S
FARIBAULT      PTCLDY    52  46  82 CALM      30.03S
OWATONNA       MOCLDY    54  46  76 SE6       30.03S
WASECA         PTCLDY    50  41  71 SE6       30.04F
ALBERT LEA     MOCLDY    54  50  87 S3        30.04S
$$
MNZ078>079-086>088-094>096-170400-
   Southeast Minnesota

CITY           SKY/WX    TMP DP  RH WIND       PRES   REMARKS
ROCHESTER      CLEAR     48  45  89 S5        30.06S
RED WING       CLEAR     46  46 100 CALM      30.02F
STANTON        PTCLDY    49  45  86 CALM      30.01S
DODGE CENTER   MOCLDY    52  46  82 S6        30.04F
WINONA         CLEAR     50  46  87 CALM      30.06S
AUSTIN         CLEAR     46  45  93 CALM      30.04F
PRESTON        CLEAR     50  48  92 S5        30.06F
$$
ABBREVIATIONS USED IN REMARKS
   TC - TEMPERATURES IN CELSIUS
  WCI - WIND CHILL INDEX
   HX - HEAT INDEX
  VSB - VISIBILITY
$$



USA.gov is the U.S. government's official web portal to all federal, state and local government web resources and services.